Time,TemperatureF,DewpointF,PressureIn,WindDirection,WindDirectionDegrees,WindSpeedMPH,WindSpeedGustMPH,Humidity,HourlyPrecipIn,Conditions,Clouds,dailyrainin,SoftwareType,DateUTC
2013-03-13 00:00:00,29.4,25.5,30.01,North,0,2.9,12.0,85,0.00,,,0.00,WUHU216HW,2013-03-13 04:00:00,
2013-03-13 00:05:00,29.1,25.4,30.01,NW,315,16.3,16.3,86,0.00,,,0.00,WUHU216HW,2013-03-13 04:05:00,
2013-03-13 00:10:00,28.9,25.2,30.02,NNW,338,7.8,16.3,86,0.00,,,0.00,WUHU216HW,2013-03-13 04:10:00,
2013-03-13 00:15:00,28.5,24.9,30.02,NNW,338,6.7,16.3,86,0.00,,,0.00,WUHU216HW,2013-03-13 04:15:00,
2013-03-13 00:20:00,28.5,24.9,30.02,NW,315,10.2,10.9,86,0.00,,,0.00,WUHU216HW,2013-03-13 04:20:00,
2013-03-13 00:25:00,28.5,25.1,30.02,WNW,293,6.2,10.2,87,0.00,,,0.00,WUHU216HW,2013-03-13 04:25:00,
2013-03-13 00:30:00,28.2,24.8,30.02,West,270,2.9,10.2,87,0.00,,,0.00,WUHU216HW,2013-03-13 04:30:00,
2013-03-13 00:35:00,28.4,24.7,30.02,WNW,293,6.7,6.7,86,0.00,,,0.00,WUHU216HW,2013-03-13 04:35:00,
2013-03-13 00:40:00,28.5,24.6,30.01,WNW,293,9.1,9.1,85,0.00,,,0.00,WUHU216HW,2013-03-13 04:40:00,
2013-03-13 00:45:00,28.5,24.6,30.02,NW,315,6.9,9.1,85,0.00,,,0.00,WUHU216HW,2013-03-13 04:45:00,
2013-03-13 00:50:00,28.5,24.6,30.02,WNW,293,10.5,10.5,85,0.00,,,0.00,WUHU216HW,2013-03-13 04:50:00,
2013-03-13 00:55:00,28.2,24.2,30.02,WNW,293,3.5,10.5,85,0.00,,,0.00,WUHU216HW,2013-03-13 04:55:00,
2013-03-13 01:00:00,28.2,24.2,30.01,NNW,338,2.9,10.5,85,0.00,,,0.00,WUHU216HW,2013-03-13 05:00:00,
2013-03-13 01:05:00,28.5,24.6,30.02,NW,315,8.0,8.9,85,0.00,,,0.00,WUHU216HW,2013-03-13 05:05:00,
2013-03-13 01:10:00,28.7,24.5,30.02,NW,315,8.9,8.9,84,0.00,,,0.00,WUHU216HW,2013-03-13 05:10:00,
2013-03-13 01:15:00,28.9,24.1,30.01,WNW,293,8.5,8.9,82,0.00,,,0.00,WUHU216HW,2013-03-13 05:15:00,
2013-03-13 01:20:00,28.9,24.1,30.02,WNW,293,8.5,8.5,82,0.00,,,0.00,WUHU216HW,2013-03-13 05:20:00,
2013-03-13 01:25:00,29.3,23.9,30.01,NW,315,14.0,14.0,80,0.00,,,0.00,WUHU216HW,2013-03-13 05:25:00,
2013-03-13 01:30:00,29.3,23.5,30.02,North,0,2.2,14.0,79,0.00,,,0.00,WUHU216HW,2013-03-13 05:30:00,
2013-03-13 01:35:00,29.3,23.2,30.01,NW,315,6.0,10.5,78,0.00,,,0.00,WUHU216HW,2013-03-13 05:35:00,
2013-03-13 01:40:00,29.3,23.2,30.02,WNW,293,13.4,13.4,78,0.00,,,0.00,WUHU216HW,2013-03-13 05:40:00,
2013-03-13 01:45:00,29.3,22.9,30.01,WNW,293,3.8,13.4,77,0.00,,,0.00,WUHU216HW,2013-03-13 05:45:00,
2013-03-13 01:50:00,29.1,22.7,30.02,West,270,11.4,16.1,77,0.00,,,0.00,WUHU216HW,2013-03-13 05:50:00,
2013-03-13 01:55:00,29.1,22.4,30.02,NW,315,8.9,16.1,76,0.00,,,0.00,WUHU216HW,2013-03-13 05:55:00,
2013-03-13 02:00:00,29.1,22.4,30.01,NNW,338,11.1,11.1,76,0.00,,,0.00,WUHU216HW,2013-03-13 06:00:00,
2013-03-13 02:05:00,29.1,22.1,30.01,WNW,293,10.9,11.1,75,0.00,,,0.00,WUHU216HW,2013-03-13 06:05:00,
2013-03-13 02:10:00,29.1,22.1,30.01,NW,315,7.1,11.1,75,0.00,,,0.00,WUHU216HW,2013-03-13 06:10:00,
2013-03-13 02:15:00,29.1,22.1,30.01,WNW,293,1.7,10.9,75,0.00,,,0.00,WUHU216HW,2013-03-13 06:15:00,
2013-03-13 02:20:00,29.1,22.1,30.01,NW,315,4.4,9.6,75,0.00,,,0.00,WUHU216HW,2013-03-13 06:20:00,
2013-03-13 02:25:00,29.1,22.4,30.01,NNW,338,4.9,9.6,76,0.00,,,0.00,WUHU216HW,2013-03-13 06:25:00,
2013-03-13 02:30:00,29.1,22.4,30.02,NW,315,3.5,6.2,76,0.00,,,0.00,WUHU216HW,2013-03-13 06:30:00,
2013-03-13 02:35:00,29.1,22.7,30.01,NW,315,14.0,14.7,77,0.00,,,0.00,WUHU216HW,2013-03-13 06:35:00,
2013-03-13 02:40:00,28.9,22.6,30.02,NNW,338,11.6,14.7,77,0.00,,,0.00,WUHU216HW,2013-03-13 06:40:00,
2013-03-13 02:45:00,28.9,22.6,30.01,NW,315,5.1,17.6,77,0.00,,,0.00,WUHU216HW,2013-03-13 06:45:00,
2013-03-13 02:50:00,28.9,22.6,30.02,NNW,338,9.8,17.6,77,0.00,,,0.00,WUHU216HW,2013-03-13 06:50:00,
2013-03-13 02:55:00,29.1,22.7,30.01,NNW,338,10.9,13.4,77,0.00,,,0.00,WUHU216HW,2013-03-13 06:55:00,
2013-03-13 03:00:00,29.1,23.0,30.01,NW,315,8.2,14.3,78,0.00,,,0.00,WUHU216HW,2013-03-13 07:00:00,
2013-03-13 03:05:00,28.9,23.2,30.02,NNW,338,4.6,14.3,79,0.00,,,0.00,WUHU216HW,2013-03-13 07:05:00,
2013-03-13 03:10:00,28.7,23.3,30.01,NW,315,10.2,10.2,80,0.00,,,0.00,WUHU216HW,2013-03-13 07:10:00,
2013-03-13 03:15:00,28.2,23.1,30.02,NW,315,0.0,11.6,81,0.00,,,0.00,WUHU216HW,2013-03-13 07:15:00,
2013-03-13 03:20:00,28.0,22.9,30.02,SSW,203,7.1,11.6,81,0.00,,,0.00,WUHU216HW,2013-03-13 07:20:00,
2013-03-13 03:25:00,27.6,22.8,30.02,West,270,6.4,7.3,82,0.00,,,0.00,WUHU216HW,2013-03-13 07:25:00,
2013-03-13 03:30:00,27.6,23.1,30.01,NW,315,7.6,11.1,83,0.00,,,0.00,WUHU216HW,2013-03-13 07:30:00,
2013-03-13 03:35:00,27.5,22.9,30.02,NW,315,4.4,11.1,83,0.00,,,0.00,WUHU216HW,2013-03-13 07:35:00,
2013-03-13 03:40:00,27.3,23.0,30.01,WSW,248,11.4,11.4,84,0.00,,,0.00,WUHU216HW,2013-03-13 07:40:00,
2013-03-13 03:45:00,27.3,23.0,30.02,WNW,293,8.5,11.4,84,0.00,,,0.00,WUHU216HW,2013-03-13 07:45:00,
2013-03-13 03:50:00,27.3,23.3,30.01,NNW,338,6.2,8.5,85,0.00,,,0.00,WUHU216HW,2013-03-13 07:50:00,
2013-03-13 03:55:00,27.3,23.3,30.02,NW,315,12.9,12.9,85,0.00,,,0.00,WUHU216HW,2013-03-13 07:55:00,
2013-03-13 04:00:00,27.3,23.3,30.02,WNW,293,15.6,15.6,85,0.00,,,0.00,WUHU216HW,2013-03-13 08:00:00,
2013-03-13 04:06:00,27.5,23.5,30.02,NW,315,13.4,15.6,85,0.00,,,0.00,WUHU216HW,2013-03-13 08:06:00,
2013-03-13 04:11:00,27.3,23.3,30.01,North,0,9.6,15.6,85,0.00,,,0.00,WUHU216HW,2013-03-13 08:11:00,
2013-03-13 04:16:00,27.3,23.3,30.02,WNW,293,3.3,12.9,85,0.00,,,0.00,WUHU216HW,2013-03-13 08:16:00,
2013-03-13 04:21:00,27.3,23.3,30.01,NNW,338,3.3,14.3,85,0.00,,,0.00,WUHU216HW,2013-03-13 08:21:00,
2013-03-13 04:26:00,27.3,23.3,30.01,WNW,293,9.1,14.3,85,0.00,,,0.00,WUHU216HW,2013-03-13 08:26:00,
2013-03-13 04:31:00,27.5,23.5,30.01,NW,315,2.9,14.3,85,0.00,,,0.00,WUHU216HW,2013-03-13 08:31:00,
2013-03-13 04:36:00,27.6,23.4,30.01,NNE,23,9.1,12.9,84,0.00,,,0.00,WUHU216HW,2013-03-13 08:36:00,
2013-03-13 04:40:00,27.6,23.4,30.01,NE,45,4.0,12.9,84,0.00,,,0.00,WUHU216HW,2013-03-13 08:40:00,
2013-03-13 04:45:00,28.0,23.2,30.01,NW,315,8.9,9.1,82,0.00,,,0.00,WUHU216HW,2013-03-13 08:45:00,
2013-03-13 04:50:00,28.0,23.2,30.02,WNW,293,10.0,10.0,82,0.00,,,0.00,WUHU216HW,2013-03-13 08:50:00,
2013-03-13 04:55:00,28.0,22.9,30.01,WNW,293,9.6,10.0,81,0.00,,,0.00,WUHU216HW,2013-03-13 08:55:00,
2013-03-13 05:00:00,28.2,23.1,30.02,NW,315,7.8,11.8,81,0.00,,,0.00,WUHU216HW,2013-03-13 09:00:00,
2013-03-13 05:05:00,28.0,22.9,30.02,NW,315,4.4,11.8,81,0.00,,,0.00,WUHU216HW,2013-03-13 09:05:00,
2013-03-13 05:10:00,28.0,22.9,30.02,North,0,6.9,9.1,81,0.00,,,0.00,WUHU216HW,2013-03-13 09:10:00,
2013-03-13 05:16:00,28.0,22.6,30.02,North,0,11.1,11.1,80,0.00,,,0.00,WUHU216HW,2013-03-13 09:16:00,
2013-03-13 05:21:00,28.0,22.6,30.02,NNW,338,6.9,11.1,80,0.00,,,0.00,WUHU216HW,2013-03-13 09:21:00,
2013-03-13 05:26:00,28.0,22.6,30.02,North,0,7.3,13.1,80,0.00,,,0.00,WUHU216HW,2013-03-13 09:26:00,
2013-03-13 05:31:00,27.6,22.5,30.03,NW,315,13.4,13.4,81,0.00,,,0.00,WUHU216HW,2013-03-13 09:31:00,
2013-03-13 05:36:00,27.6,22.5,30.03,North,0,0.0,13.4,81,0.00,,,0.00,WUHU216HW,2013-03-13 09:36:00,
2013-03-13 05:41:00,27.3,22.2,30.03,NNW,338,8.0,13.4,81,0.00,,,0.00,WUHU216HW,2013-03-13 09:41:00,
2013-03-13 05:46:00,27.1,22.3,30.03,North,0,9.6,10.7,82,0.00,,,0.00,WUHU216HW,2013-03-13 09:46:00,
2013-03-13 05:51:00,27.1,22.0,30.03,NNW,338,10.9,10.9,81,0.00,,,0.00,WUHU216HW,2013-03-13 09:51:00,
2013-03-13 05:56:00,27.1,22.0,30.03,NNW,338,5.5,10.9,81,0.00,,,0.00,WUHU216HW,2013-03-13 09:56:00,
2013-03-13 06:01:00,27.1,22.0,30.03,North,0,3.1,8.9,81,0.00,,,0.00,WUHU216HW,2013-03-13 10:01:00,
2013-03-13 06:05:00,27.1,22.0,30.04,NW,315,8.7,10.5,81,0.00,,,0.00,WUHU216HW,2013-03-13 10:05:00,
2013-03-13 06:10:00,26.9,21.8,30.04,NNW,338,4.4,10.5,81,0.00,,,0.00,WUHU216HW,2013-03-13 10:10:00,
2013-03-13 06:15:00,26.9,21.5,30.04,NNW,338,11.1,11.1,80,0.00,,,0.00,WUHU216HW,2013-03-13 10:15:00,
2013-03-13 06:20:00,27.1,21.4,30.05,NW,315,10.2,14.9,79,0.00,,,0.00,WUHU216HW,2013-03-13 10:20:00,
2013-03-13 06:25:00,27.1,21.1,30.05,NNW,338,12.7,14.9,78,0.00,,,0.00,WUHU216HW,2013-03-13 10:25:00,
2013-03-13 06:30:00,26.9,20.6,30.05,North,0,8.5,13.4,77,0.00,,,0.00,WUHU216HW,2013-03-13 10:30:00,
2013-03-13 06:35:00,26.7,20.1,30.05,North,0,14.5,14.5,76,0.00,,,0.00,WUHU216HW,2013-03-13 10:35:00,
2013-03-13 06:40:00,26.7,20.1,30.06,NNW,338,8.0,14.5,76,0.00,,,0.00,WUHU216HW,2013-03-13 10:40:00,
2013-03-13 06:45:00,26.6,19.9,30.06,NNW,338,12.9,14.5,76,0.00,,,0.00,WUHU216HW,2013-03-13 10:45:00,
2013-03-13 06:50:00,26.4,19.7,30.06,NNW,338,9.8,12.9,76,0.00,,,0.00,WUHU216HW,2013-03-13 10:50:00,
2013-03-13 06:55:00,26.4,19.4,30.06,WNW,293,7.6,12.9,75,0.00,,,0.00,WUHU216HW,2013-03-13 10:55:00,
2013-03-13 07:00:00,26.2,19.3,30.06,West,270,7.1,11.4,75,0.00,,,0.00,WUHU216HW,2013-03-13 11:00:00,
2013-03-13 07:05:00,26.2,19.3,30.07,NNW,338,10.5,11.8,75,0.00,,,0.00,WUHU216HW,2013-03-13 11:05:00,
2013-03-13 07:10:00,26.2,19.3,30.08,North,0,3.5,12.3,75,0.00,,,0.00,WUHU216HW,2013-03-13 11:10:00,
2013-03-13 07:15:00,26.0,19.4,30.07,North,0,7.6,16.5,76,0.00,,,0.00,WUHU216HW,2013-03-13 11:15:00,
2013-03-13 07:20:00,25.8,19.2,30.08,NNW,338,8.2,16.5,76,0.00,,,0.00,WUHU216HW,2013-03-13 11:20:00,
2013-03-13 07:25:00,25.8,19.2,30.08,North,0,6.4,8.2,76,0.00,,,0.00,WUHU216HW,2013-03-13 11:25:00,
2013-03-13 07:30:00,25.7,19.1,30.09,NW,315,2.9,8.2,76,0.00,,,0.00,WUHU216HW,2013-03-13 11:30:00,
2013-03-13 07:35:00,25.7,19.1,30.09,NNW,338,9.8,17.2,76,0.00,,,0.00,WUHU216HW,2013-03-13 11:35:00,
2013-03-13 07:40:00,25.7,19.4,30.10,West,270,4.6,17.2,77,0.00,,,0.00,WUHU216HW,2013-03-13 11:40:00,
2013-03-13 07:47:00,25.5,18.9,30.10,NW,315,13.1,13.1,76,0.00,,,0.00,WUHU216HW,2013-03-13 11:47:00,
2013-03-13 07:52:00,25.5,18.9,30.10,NW,315,7.8,13.1,76,0.00,,,0.00,WUHU216HW,2013-03-13 11:52:00,
2013-03-13 07:57:00,25.5,18.6,30.11,NNW,338,8.2,18.7,75,0.00,,,0.00,WUHU216HW,2013-03-13 11:57:00,
2013-03-13 08:02:00,25.5,18.6,30.11,WNW,293,6.4,18.7,75,0.00,,,0.00,WUHU216HW,2013-03-13 12:02:00,
2013-03-13 08:07:00,25.5,18.6,30.12,North,0,7.6,12.9,75,0.00,,,0.00,WUHU216HW,2013-03-13 12:07:00,
2013-03-13 08:12:00,25.5,18.6,30.12,North,0,12.9,12.9,75,0.00,,,0.00,WUHU216HW,2013-03-13 12:12:00,
2013-03-13 08:17:00,25.5,18.6,30.13,NW,315,6.0,12.9,75,0.00,,,0.00,WUHU216HW,2013-03-13 12:17:00,
2013-03-13 08:22:00,25.5,18.6,30.13,NW,315,10.2,12.9,75,0.00,,,0.00,WUHU216HW,2013-03-13 12:22:00,
2013-03-13 08:27:00,25.5,18.3,30.13,NW,315,6.0,12.3,74,0.00,,,0.00,WUHU216HW,2013-03-13 12:27:00,
2013-03-13 08:32:00,25.5,18.6,30.14,NNW,338,5.1,12.3,75,0.00,,,0.00,WUHU216HW,2013-03-13 12:32:00,
2013-03-13 08:37:00,25.5,18.6,30.14,NNW,338,6.9,13.1,75,0.00,,,0.00,WUHU216HW,2013-03-13 12:37:00,
2013-03-13 08:42:00,25.5,18.6,30.15,NNW,338,11.6,13.1,75,0.00,,,0.00,WUHU216HW,2013-03-13 12:42:00,
2013-03-13 08:47:00,25.5,18.3,30.15,NW,315,4.4,12.5,74,0.00,,,0.00,WUHU216HW,2013-03-13 12:47:00,
2013-03-13 08:52:00,25.5,18.3,30.15,NNE,23,2.6,12.5,74,0.00,,,0.00,WUHU216HW,2013-03-13 12:52:00,
2013-03-13 08:57:00,25.5,18.3,30.16,WNW,293,5.3,9.6,74,0.00,,,0.00,WUHU216HW,2013-03-13 12:57:00,
2013-03-13 09:02:00,25.5,17.9,30.16,NW,315,10.0,10.0,73,0.00,,,0.00,WUHU216HW,2013-03-13 13:02:00,
2013-03-13 09:07:00,25.5,17.9,30.16,NW,315,8.2,10.0,73,0.00,,,0.00,WUHU216HW,2013-03-13 13:07:00,
2013-03-13 09:12:00,25.7,18.1,30.17,NNW,338,6.9,10.0,73,0.00,,,0.00,WUHU216HW,2013-03-13 13:12:00,
2013-03-13 09:17:00,25.7,18.5,30.17,NNW,338,10.9,10.9,74,0.00,,,0.00,WUHU216HW,2013-03-13 13:17:00,
2013-03-13 09:22:00,25.8,18.6,30.17,North,0,7.1,14.5,74,0.00,,,0.00,WUHU216HW,2013-03-13 13:22:00,
2013-03-13 09:27:00,25.8,18.6,30.17,NNW,338,9.6,14.5,74,0.00,,,0.00,WUHU216HW,2013-03-13 13:27:00,
2013-03-13 09:32:00,25.7,18.6,30.18,NW,315,6.0,9.6,74,0.00,,,0.00,WUHU216HW,2013-03-13 13:32:00,
2013-03-13 09:37:00,25.8,18.6,30.18,NNW,338,11.4,13.4,74,0.00,,,0.00,WUHU216HW,2013-03-13 13:37:00,
2013-03-13 09:42:00,25.8,18.6,30.18,NNW,338,13.4,13.4,74,0.00,,,0.00,WUHU216HW,2013-03-13 13:42:00,
2013-03-13 09:47:00,25.8,18.9,30.18,WNW,293,3.8,13.4,75,0.00,,,0.00,WUHU216HW,2013-03-13 13:47:00,
2013-03-13 09:52:00,25.8,18.9,30.19,WNW,293,7.6,7.6,75,0.00,,,0.00,WUHU216HW,2013-03-13 13:52:00,
2013-03-13 09:57:00,25.8,19.2,30.19,WNW,293,4.6,10.7,76,0.00,,,0.00,WUHU216HW,2013-03-13 13:57:00,
2013-03-13 10:02:00,26.0,19.4,30.19,WNW,293,8.5,10.7,76,0.00,,,0.00,WUHU216HW,2013-03-13 14:02:00,
2013-03-13 10:07:00,26.2,19.6,30.19,NNW,338,5.5,8.5,76,0.00,,,0.00,WUHU216HW,2013-03-13 14:07:00,
2013-03-13 10:12:00,26.4,19.7,30.20,NNW,338,15.2,15.2,76,0.00,,,0.00,WUHU216HW,2013-03-13 14:12:00,
2013-03-13 10:17:00,26.4,19.7,30.20,WNW,293,4.6,15.2,76,0.00,,,0.00,WUHU216HW,2013-03-13 14:17:00,
2013-03-13 10:22:00,26.4,19.7,30.21,NW,315,10.9,15.2,76,0.00,,,0.00,WUHU216HW,2013-03-13 14:22:00,
2013-03-13 10:27:00,26.4,20.1,30.21,NNW,338,7.3,10.9,77,0.00,,,0.00,WUHU216HW,2013-03-13 14:27:00,
2013-03-13 10:32:00,26.4,20.4,30.21,NNW,338,9.6,10.9,78,0.00,,,0.00,WUHU216HW,2013-03-13 14:32:00,
2013-03-13 10:37:00,26.4,20.4,30.21,NW,315,7.6,9.6,78,0.00,,,0.00,WUHU216HW,2013-03-13 14:37:00,
2013-03-13 10:42:00,26.6,20.5,30.22,WNW,293,9.1,9.6,78,0.00,,,0.00,WUHU216HW,2013-03-13 14:42:00,
2013-03-13 10:47:00,26.4,20.4,30.22,North,0,10.7,16.5,78,0.00,,,0.00,WUHU216HW,2013-03-13 14:47:00,
2013-03-13 10:52:00,26.4,20.7,30.22,North,0,12.3,16.5,79,0.00,,,0.00,WUHU216HW,2013-03-13 14:52:00,
2013-03-13 10:58:00,26.4,20.4,30.23,NNE,23,12.7,17.2,78,0.00,,,0.00,WUHU216HW,2013-03-13 14:58:00,
2013-03-13 11:03:00,26.6,20.5,30.23,WNW,293,8.9,17.2,78,0.00,,,0.00,WUHU216HW,2013-03-13 15:03:00,
2013-03-13 11:07:00,26.7,20.7,30.23,NNW,338,11.8,12.7,78,0.00,,,0.00,WUHU216HW,2013-03-13 15:07:00,
2013-03-13 11:13:00,26.7,20.7,30.23,NNW,338,11.1,14.3,78,0.00,,,0.00,WUHU216HW,2013-03-13 15:13:00,
2013-03-13 11:18:00,27.1,21.1,30.23,NNW,338,5.1,14.3,78,0.00,,,0.00,WUHU216HW,2013-03-13 15:18:00,
2013-03-13 11:23:00,27.1,20.5,30.23,NNW,338,8.0,11.1,76,0.00,,,0.00,WUHU216HW,2013-03-13 15:23:00,
2013-03-13 11:28:00,27.1,20.5,30.23,West,270,4.4,9.1,76,0.00,,,0.00,WUHU216HW,2013-03-13 15:28:00,
2013-03-13 11:33:00,27.3,20.6,30.24,NW,315,9.6,10.7,76,0.00,,,0.00,WUHU216HW,2013-03-13 15:33:00,
2013-03-13 11:38:00,27.3,20.3,30.24,NW,315,18.1,18.1,75,0.00,,,0.00,WUHU216HW,2013-03-13 15:38:00,
2013-03-13 11:43:00,27.3,20.0,30.25,WNW,293,8.5,18.1,74,0.00,,,0.00,WUHU216HW,2013-03-13 15:43:00,
2013-03-13 11:48:00,27.3,19.7,30.25,NNW,338,6.9,8.9,73,0.00,,,0.00,WUHU216HW,2013-03-13 15:48:00,
2013-03-13 11:53:00,27.5,19.9,30.26,NW,315,4.4,8.5,73,0.00,,,0.00,WUHU216HW,2013-03-13 15:53:00,
2013-03-13 11:58:00,27.5,19.9,30.25,North,0,14.5,14.5,73,0.00,,,0.00,WUHU216HW,2013-03-13 15:58:00,
2013-03-13 12:03:00,28.0,20.4,30.26,WNW,293,9.8,14.5,73,0.00,,,0.00,WUHU216HW,2013-03-13 16:03:00,
2013-03-13 12:08:00,28.0,20.1,30.26,NW,315,14.9,14.9,72,0.00,,,0.00,WUHU216HW,2013-03-13 16:08:00,
2013-03-13 12:13:00,28.0,20.1,30.26,NW,315,2.9,14.9,72,0.00,,,0.00,WUHU216HW,2013-03-13 16:13:00,
2013-03-13 12:18:00,28.0,20.1,30.26,NNW,338,8.9,14.9,72,0.00,,,0.00,WUHU216HW,2013-03-13 16:18:00,
2013-03-13 12:23:00,27.6,19.8,30.27,NNW,338,1.7,13.1,72,0.00,,,0.00,WUHU216HW,2013-03-13 16:23:00,
2013-03-13 12:28:00,27.6,19.8,30.27,NNW,338,10.5,10.5,72,0.00,,,0.00,WUHU216HW,2013-03-13 16:28:00,
2013-03-13 12:33:00,27.6,19.8,30.27,West,270,3.5,21.0,72,0.00,,,0.00,WUHU216HW,2013-03-13 16:33:00,
2013-03-13 12:38:00,27.5,19.6,30.27,North,0,6.7,21.0,72,0.00,,,0.00,WUHU216HW,2013-03-13 16:38:00,
2013-03-13 12:43:00,27.5,19.6,30.27,NW,315,10.9,10.9,72,0.00,,,0.00,WUHU216HW,2013-03-13 16:43:00,
2013-03-13 12:48:00,27.6,19.8,30.27,WNW,293,6.4,10.9,72,0.00,,,0.00,WUHU216HW,2013-03-13 16:48:00,
2013-03-13 12:53:00,28.0,19.8,30.28,WNW,293,6.7,10.7,71,0.00,,,0.00,WUHU216HW,2013-03-13 16:53:00,
2013-03-13 12:58:00,28.0,19.8,30.27,NNW,338,6.0,12.7,71,0.00,,,0.00,WUHU216HW,2013-03-13 16:58:00,
2013-03-13 13:03:00,28.2,19.8,30.29,WNW,293,6.9,12.7,71,0.00,,,0.00,WUHU216HW,2013-03-13 17:03:00,
2013-03-13 13:08:00,28.2,19.7,30.29,NNW,338,15.6,15.6,70,0.00,,,0.00,WUHU216HW,2013-03-13 17:08:00,
2013-03-13 13:13:00,28.7,20.2,30.28,NNW,338,7.6,15.6,70,0.00,,,0.00,WUHU216HW,2013-03-13 17:13:00,
2013-03-13 13:18:00,28.9,20.4,30.29,WNW,293,6.2,15.6,70,0.00,,,0.00,WUHU216HW,2013-03-13 17:18:00,
2013-03-13 13:23:00,28.9,20.4,30.29,WNW,293,9.3,9.3,70,0.00,,,0.00,WUHU216HW,2013-03-13 17:23:00,
2013-03-13 13:28:00,29.1,20.5,30.29,NNW,338,8.0,9.3,70,0.00,,,0.00,WUHU216HW,2013-03-13 17:28:00,
2013-03-13 13:33:00,29.3,20.3,30.29,NNE,23,5.1,9.1,69,0.00,,,0.00,WUHU216HW,2013-03-13 17:33:00,
2013-03-13 13:38:00,29.4,20.5,30.29,WNW,293,13.1,23.0,69,0.00,,,0.00,WUHU216HW,2013-03-13 17:38:00,
2013-03-13 13:43:00,29.6,20.1,30.30,WNW,293,12.7,23.0,68,0.00,,,0.00,WUHU216HW,2013-03-13 17:43:00,
2013-03-13 13:48:00,29.8,20.1,30.30,NNW,338,8.5,13.8,67,0.00,,,0.00,WUHU216HW,2013-03-13 17:48:00,
2013-03-13 13:53:00,30.0,20.3,30.29,WNW,293,5.8,12.0,67,0.00,,,0.00,WUHU216HW,2013-03-13 17:53:00,
2013-03-13 13:58:00,29.8,19.7,30.29,NNW,338,12.0,12.0,66,0.00,,,0.00,WUHU216HW,2013-03-13 17:58:00,
2013-03-13 14:03:00,30.5,20.4,30.30,NNW,338,13.4,14.3,66,0.00,,,0.00,WUHU216HW,2013-03-13 18:03:00,
2013-03-13 14:08:00,30.5,20.4,30.30,North,0,4.2,14.3,66,0.00,,,0.00,WUHU216HW,2013-03-13 18:08:00,
2013-03-13 14:13:00,30.5,20.6,30.30,North,0,4.9,13.4,66,0.00,,,0.00,WUHU216HW,2013-03-13 18:13:00,
2013-03-13 14:18:00,30.7,20.3,30.30,NNW,338,7.6,11.1,65,0.00,,,0.00,WUHU216HW,2013-03-13 18:18:00,
2013-03-13 14:23:00,31.1,20.6,30.30,West,270,6.4,11.1,65,0.00,,,0.00,WUHU216HW,2013-03-13 18:23:00,
2013-03-13 14:28:00,31.6,20.4,30.30,NW,315,5.3,15.2,63,0.00,,,0.00,WUHU216HW,2013-03-13 18:28:00,
2013-03-13 14:33:00,31.8,20.6,30.30,ENE,68,8.9,15.2,63,0.00,,,0.00,WUHU216HW,2013-03-13 18:33:00,
2013-03-13 14:38:00,31.8,20.6,30.31,NNW,338,17.8,17.8,63,0.00,,,0.00,WUHU216HW,2013-03-13 18:38:00,
2013-03-13 14:43:00,31.8,20.3,30.31,West,270,17.8,17.8,62,0.00,,,0.00,WUHU216HW,2013-03-13 18:43:00,
2013-03-13 14:48:00,31.6,19.7,30.31,NW,315,10.0,17.8,61,0.00,,,0.00,WUHU216HW,2013-03-13 18:48:00,
2013-03-13 14:53:00,31.8,20.3,30.31,West,270,5.5,17.8,62,0.00,,,0.00,WUHU216HW,2013-03-13 18:53:00,
2013-03-13 14:58:00,32.5,21.1,30.31,NNW,338,11.4,11.4,62,0.00,,,0.00,WUHU216HW,2013-03-13 18:58:00,
2013-03-13 15:03:00,32.9,20.9,30.31,NW,315,11.6,11.6,61,0.00,,,0.00,WUHU216HW,2013-03-13 19:03:00,
2013-03-13 15:08:00,32.7,20.4,30.31,NNW,338,12.7,12.7,60,0.00,,,0.00,WUHU216HW,2013-03-13 19:08:00,
2013-03-13 15:13:00,32.7,20.4,30.31,NNW,338,11.4,12.7,60,0.00,,,0.00,WUHU216HW,2013-03-13 19:13:00,
2013-03-13 15:18:00,32.5,20.2,30.32,NW,315,16.3,16.3,60,0.00,,,0.00,WUHU216HW,2013-03-13 19:18:00,
2013-03-13 15:23:00,32.1,19.4,30.32,WNW,293,9.1,16.3,59,0.00,,,0.00,WUHU216HW,2013-03-13 19:23:00,
2013-03-13 15:28:00,31.8,19.5,30.32,WNW,293,17.8,17.8,60,0.00,,,0.00,WUHU216HW,2013-03-13 19:28:00,
2013-03-13 15:33:00,31.6,19.4,30.32,North,0,3.3,17.8,60,0.00,,,0.00,WUHU216HW,2013-03-13 19:33:00,
2013-03-13 15:38:00,32.1,19.9,30.32,NNW,338,3.5,17.8,60,0.00,,,0.00,WUHU216HW,2013-03-13 19:38:00,
2013-03-13 15:43:00,32.5,20.2,30.32,North,0,13.1,13.1,60,0.00,,,0.00,WUHU216HW,2013-03-13 19:43:00,
2013-03-13 15:48:00,32.5,20.2,30.32,North,0,10.9,13.1,60,0.00,,,0.00,WUHU216HW,2013-03-13 19:48:00,
2013-03-13 15:53:00,32.7,19.9,30.32,NW,315,6.2,13.1,59,0.00,,,0.00,WUHU216HW,2013-03-13 19:53:00,
2013-03-13 15:58:00,32.7,19.9,30.32,WNW,293,3.1,10.9,59,0.00,,,0.00,WUHU216HW,2013-03-13 19:58:00,
2013-03-13 16:03:00,32.9,20.1,30.32,NW,315,8.5,8.9,59,0.00,,,0.00,WUHU216HW,2013-03-13 20:03:00,
2013-03-13 16:08:00,32.7,19.5,30.33,North,0,14.0,14.0,58,0.00,,,0.00,WUHU216HW,2013-03-13 20:08:00,
2013-03-13 16:13:00,32.9,19.7,30.33,NNW,338,7.3,14.3,58,0.00,,,0.00,WUHU216HW,2013-03-13 20:13:00,
2013-03-13 16:18:00,33.0,19.8,30.33,NNW,338,4.4,14.3,58,0.00,,,0.00,WUHU216HW,2013-03-13 20:18:00,
2013-03-13 16:23:00,33.2,20.0,30.33,NW,315,7.1,10.7,58,0.00,,,0.00,WUHU216HW,2013-03-13 20:23:00,
2013-03-13 16:28:00,34.1,21.0,30.33,NNW,338,8.0,8.2,58,0.00,,,0.00,WUHU216HW,2013-03-13 20:28:00,
2013-03-13 16:33:00,34.1,20.4,30.34,NNW,338,10.7,10.7,57,0.00,,,0.00,WUHU216HW,2013-03-13 20:33:00,
2013-03-13 16:38:00,34.8,21.5,30.34,NW,315,8.5,10.7,58,0.00,,,0.00,WUHU216HW,2013-03-13 20:38:00,
2013-03-13 16:43:00,35.4,21.4,30.34,WNW,293,12.0,12.0,57,0.00,,,0.00,WUHU216HW,2013-03-13 20:43:00,
2013-03-13 16:48:00,35.7,21.6,30.34,NW,315,11.1,12.0,56,0.00,,,0.00,WUHU216HW,2013-03-13 20:48:00,
2013-03-13 16:53:00,35.4,21.2,30.34,NNW,338,5.3,12.0,56,0.00,,,0.00,WUHU216HW,2013-03-13 20:53:00,
2013-03-13 16:58:00,35.4,20.8,30.34,NW,315,10.5,11.1,55,0.00,,,0.00,WUHU216HW,2013-03-13 20:58:00,
2013-03-13 17:03:00,35.2,20.6,30.35,SW,225,4.2,10.9,55,0.00,,,0.00,WUHU216HW,2013-03-13 21:03:00,
2013-03-13 17:08:00,35.0,20.4,30.35,North,0,12.0,12.0,55,0.00,,,0.00,WUHU216HW,2013-03-13 21:08:00,
2013-03-13 17:13:00,34.8,20.3,30.35,NNW,338,7.1,12.0,55,0.00,,,0.00,WUHU216HW,2013-03-13 21:13:00,
2013-03-13 17:18:00,35.0,20.0,30.35,North,0,6.4,7.1,54,0.00,,,0.00,WUHU216HW,2013-03-13 21:18:00,
2013-03-13 17:23:00,35.2,20.2,30.35,North,0,4.6,7.1,54,0.00,,,0.00,WUHU216HW,2013-03-13 21:23:00,
2013-03-13 17:28:00,35.7,20.7,30.35,NW,315,4.9,15.6,54,0.00,,,0.00,WUHU216HW,2013-03-13 21:28:00,
2013-03-13 17:33:00,35.9,20.9,30.35,NNW,338,9.8,15.6,54,0.00,,,0.00,WUHU216HW,2013-03-13 21:33:00,
2013-03-13 17:38:00,36.3,21.2,30.35,NNW,338,12.0,12.0,54,0.00,,,0.00,WUHU216HW,2013-03-13 21:38:00,
2013-03-13 17:43:00,36.1,20.2,30.35,NNW,338,10.5,12.0,52,0.00,,,0.00,WUHU216HW,2013-03-13 21:43:00,
2013-03-13 17:48:00,35.9,20.0,30.35,North,0,6.7,17.0,52,0.00,,,0.00,WUHU216HW,2013-03-13 21:48:00,
2013-03-13 17:53:00,35.9,20.0,30.36,NW,315,6.4,17.0,52,0.00,,,0.00,WUHU216HW,2013-03-13 21:53:00,
2013-03-13 17:58:00,35.7,19.8,30.35,North,0,14.7,14.7,52,0.00,,,0.00,WUHU216HW,2013-03-13 21:58:00,
2013-03-13 18:03:00,35.7,19.8,30.36,North,0,6.9,14.7,52,0.00,,,0.00,WUHU216HW,2013-03-13 22:03:00,
2013-03-13 18:08:00,35.7,19.8,30.36,NNW,338,6.4,14.7,52,0.00,,,0.00,WUHU216HW,2013-03-13 22:08:00,
2013-03-13 18:13:00,35.7,19.8,30.36,North,0,12.3,12.3,52,0.00,,,0.00,WUHU216HW,2013-03-13 22:13:00,
2013-03-13 18:18:00,35.7,19.8,30.36,NNW,338,4.6,12.3,52,0.00,,,0.00,WUHU216HW,2013-03-13 22:18:00,
2013-03-13 18:23:00,35.4,19.5,30.36,NNW,338,3.3,12.3,52,0.00,,,0.00,WUHU216HW,2013-03-13 22:23:00,
2013-03-13 18:28:00,35.4,19.1,30.36,NW,315,10.2,10.2,51,0.00,,,0.00,WUHU216HW,2013-03-13 22:28:00,
2013-03-13 18:33:00,35.4,19.1,30.36,NNW,338,7.6,10.2,51,0.00,,,0.00,WUHU216HW,2013-03-13 22:33:00,
2013-03-13 18:38:00,35.2,18.9,30.37,WNW,293,6.4,10.2,51,0.00,,,0.00,WUHU216HW,2013-03-13 22:38:00,
2013-03-13 18:43:00,35.2,18.9,30.36,NNW,338,4.6,8.5,51,0.00,,,0.00,WUHU216HW,2013-03-13 22:43:00,
2013-03-13 18:48:00,35.0,18.7,30.36,NW,315,11.6,11.6,51,0.00,,,0.00,WUHU216HW,2013-03-13 22:48:00,
2013-03-13 18:53:00,34.7,18.3,30.36,NW,315,7.1,11.8,51,0.00,,,0.00,WUHU216HW,2013-03-13 22:53:00,
2013-03-13 18:58:00,34.3,18.0,30.36,NNW,338,3.1,11.8,51,0.00,,,0.00,WUHU216HW,2013-03-13 22:58:00,
2013-03-13 19:03:00,33.8,17.4,30.36,NW,315,5.3,8.2,51,0.00,,,0.00,WUHU216HW,2013-03-13 23:03:00,
2013-03-13 19:08:00,33.4,17.1,30.37,WNW,293,6.2,8.2,51,0.00,,,0.00,WUHU216HW,2013-03-13 23:08:00,
2013-03-13 19:13:00,32.9,17.1,30.37,NNW,338,8.0,11.8,52,0.00,,,0.00,WUHU216HW,2013-03-13 23:13:00,
2013-03-13 19:18:00,32.7,16.9,30.37,West,270,2.0,11.8,52,0.00,,,0.00,WUHU216HW,2013-03-13 23:18:00,
2013-03-13 19:23:00,32.5,16.7,30.36,NNW,338,4.2,8.0,52,0.00,,,0.00,WUHU216HW,2013-03-13 23:23:00,
2013-03-13 19:28:00,32.1,16.8,30.37,North,0,6.4,10.5,53,0.00,,,0.00,WUHU216HW,2013-03-13 23:28:00,
2013-03-13 19:33:00,32.0,16.3,30.37,NNW,338,5.8,10.5,52,0.00,,,0.00,WUHU216HW,2013-03-13 23:33:00,
2013-03-13 19:38:00,31.6,15.9,30.37,NNW,338,5.8,7.1,52,0.00,,,0.00,WUHU216HW,2013-03-13 23:38:00,
2013-03-13 19:43:00,31.1,15.4,30.36,West,270,7.1,7.1,52,0.00,,,0.00,WUHU216HW,2013-03-13 23:43:00,
2013-03-13 19:48:00,30.9,15.2,30.37,NW,315,6.0,7.1,52,0.00,,,0.00,WUHU216HW,2013-03-13 23:48:00,
2013-03-13 19:53:00,30.7,15.5,30.36,NW,315,4.2,7.1,53,0.00,,,0.00,WUHU216HW,2013-03-13 23:53:00,
2013-03-13 19:58:00,30.3,15.6,30.37,WNW,293,7.6,7.6,54,0.00,,,0.00,WUHU216HW,2013-03-13 23:58:00,
2013-03-13 20:03:00,30.2,15.4,30.37,North,0,7.1,7.6,54,0.00,,,0.00,WUHU216HW,2013-03-14 00:03:00,
2013-03-13 20:08:00,30.0,15.3,30.37,WNW,293,5.8,7.6,54,0.00,,,0.00,WUHU216HW,2013-03-14 00:08:00,
2013-03-13 20:13:00,30.0,15.3,30.37,West,270,10.2,12.7,54,0.00,,,0.00,WUHU216HW,2013-03-14 00:13:00,
2013-03-13 20:18:00,29.8,15.5,30.37,NW,315,7.6,12.7,55,0.00,,,0.00,WUHU216HW,2013-03-14 00:18:00,
2013-03-13 20:23:00,29.8,15.5,30.37,NW,315,5.5,10.2,55,0.00,,,0.00,WUHU216HW,2013-03-14 00:23:00,
2013-03-13 20:28:00,29.8,15.5,30.37,WNW,293,2.9,10.5,55,0.00,,,0.00,WUHU216HW,2013-03-14 00:28:00,
2013-03-13 20:33:00,29.6,15.4,30.37,NW,315,6.2,10.5,55,0.00,,,0.00,WUHU216HW,2013-03-14 00:33:00,
2013-03-13 20:38:00,29.6,15.8,30.37,NNW,338,6.9,9.6,56,0.00,,,0.00,WUHU216HW,2013-03-14 00:38:00,
2013-03-13 20:43:00,29.4,15.6,30.38,NW,315,2.4,9.6,56,0.00,,,0.00,WUHU216HW,2013-03-14 00:43:00,
2013-03-13 20:48:00,29.4,15.6,30.37,NW,315,6.2,7.1,56,0.00,,,0.00,WUHU216HW,2013-03-14 00:48:00,
2013-03-13 20:53:00,29.4,15.6,30.37,NW,315,4.2,6.2,56,0.00,,,0.00,WUHU216HW,2013-03-14 00:53:00,
2013-03-13 20:58:00,29.4,15.6,30.37,West,270,5.1,6.2,56,0.00,,,0.00,WUHU216HW,2013-03-14 00:58:00,
2013-03-13 21:03:00,29.3,15.4,30.37,NNW,338,0.0,5.1,56,0.00,,,0.00,WUHU216HW,2013-03-14 01:03:00,
2013-03-13 21:08:00,29.3,15.4,30.37,NW,315,0.0,6.9,56,0.00,,,0.00,WUHU216HW,2013-03-14 01:08:00,
2013-03-13 21:13:00,29.1,15.3,30.36,NW,315,4.9,6.9,56,0.00,,,0.00,WUHU216HW,2013-03-14 01:13:00,
2013-03-13 21:18:00,29.1,15.3,30.37,North,0,4.9,6.2,56,0.00,,,0.00,WUHU216HW,2013-03-14 01:18:00,
2013-03-13 21:23:00,29.1,15.3,30.36,WNW,293,13.4,13.4,56,0.00,,,0.00,WUHU216HW,2013-03-14 01:23:00,
2013-03-13 21:28:00,29.1,14.9,30.36,North,0,3.1,13.4,55,0.00,,,0.00,WUHU216HW,2013-03-14 01:28:00,
2013-03-13 21:33:00,29.1,15.3,30.36,NW,315,3.3,9.1,56,0.00,,,0.00,WUHU216HW,2013-03-14 01:33:00,
2013-03-13 21:39:00,29.1,14.9,30.36,NNW,338,11.6,11.6,55,0.00,,,0.00,WUHU216HW,2013-03-14 01:39:00,
2013-03-13 21:44:00,29.1,14.9,30.36,NNW,338,6.2,11.6,55,0.00,,,0.00,WUHU216HW,2013-03-14 01:44:00,
2013-03-13 21:49:00,29.1,15.3,30.36,NW,315,6.9,11.6,56,0.00,,,0.00,WUHU216HW,2013-03-14 01:49:00,
2013-03-13 21:54:00,29.1,15.3,30.36,WNW,293,5.3,6.9,56,0.00,,,0.00,WUHU216HW,2013-03-14 01:54:00,
2013-03-13 21:59:00,29.1,15.3,30.36,WNW,293,7.1,7.1,56,0.00,,,0.00,WUHU216HW,2013-03-14 01:59:00,
2013-03-13 22:04:00,29.1,15.3,30.36,WNW,293,8.9,10.7,56,0.00,,,0.00,WUHU216HW,2013-03-14 02:04:00,
2013-03-13 22:09:00,29.1,15.3,30.36,NNW,338,3.5,10.7,56,0.00,,,0.00,WUHU216HW,2013-03-14 02:09:00,
2013-03-13 22:14:00,29.1,15.3,30.36,NNW,338,3.5,10.2,56,0.00,,,0.00,WUHU216HW,2013-03-14 02:14:00,
2013-03-13 22:19:00,29.1,15.3,30.36,WNW,293,7.1,7.1,56,0.00,,,0.00,WUHU216HW,2013-03-14 02:19:00,
2013-03-13 22:24:00,29.1,15.3,30.36,WNW,293,4.0,7.1,56,0.00,,,0.00,WUHU216HW,2013-03-14 02:24:00,
2013-03-13 22:29:00,29.1,15.3,30.36,NW,315,6.4,6.4,56,0.00,,,0.00,WUHU216HW,2013-03-14 02:29:00,
2013-03-13 22:34:00,29.1,15.3,30.36,NW,315,4.6,6.4,56,0.00,,,0.00,WUHU216HW,2013-03-14 02:34:00,
2013-03-13 22:39:00,29.1,15.3,30.36,NNW,338,7.1,7.1,56,0.00,,,0.00,WUHU216HW,2013-03-14 02:39:00,
2013-03-13 22:44:00,29.1,15.3,30.36,NNW,338,4.4,7.1,56,0.00,,,0.00,WUHU216HW,2013-03-14 02:44:00,
2013-03-13 22:49:00,29.1,15.3,30.36,WNW,293,2.4,7.1,56,0.00,,,0.00,WUHU216HW,2013-03-14 02:49:00,
2013-03-13 22:54:00,29.1,15.3,30.36,NNW,338,3.5,4.6,56,0.00,,,0.00,WUHU216HW,2013-03-14 02:54:00,
2013-03-13 22:59:00,29.1,15.3,30.36,WNW,293,2.0,8.2,56,0.00,,,0.00,WUHU216HW,2013-03-14 02:59:00,
2013-03-13 23:04:00,29.1,14.9,30.36,WNW,293,1.7,9.8,55,0.00,,,0.00,WUHU216HW,2013-03-14 03:04:00,
2013-03-13 23:09:00,28.9,14.7,30.36,WSW,248,3.8,9.8,55,0.00,,,0.00,WUHU216HW,2013-03-14 03:09:00,
2013-03-13 23:14:00,28.9,15.1,30.36,NW,315,5.8,5.8,56,0.00,,,0.00,WUHU216HW,2013-03-14 03:14:00,
2013-03-13 23:19:00,28.9,15.1,30.36,WNW,293,2.9,5.8,56,0.00,,,0.00,WUHU216HW,2013-03-14 03:19:00,
2013-03-13 23:24:00,28.9,15.1,30.36,NW,315,10.5,10.5,56,0.00,,,0.00,WUHU216HW,2013-03-14 03:24:00,
2013-03-13 23:29:00,29.1,15.7,30.36,NNW,338,1.5,10.5,57,0.00,,,0.00,WUHU216HW,2013-03-14 03:29:00,
2013-03-13 23:34:00,29.1,15.7,30.36,West,270,9.3,10.5,57,0.00,,,0.00,WUHU216HW,2013-03-14 03:34:00,
2013-03-13 23:39:00,29.1,15.7,30.36,West,270,4.9,9.3,57,0.00,,,0.00,WUHU216HW,2013-03-14 03:39:00,
2013-03-13 23:44:00,29.1,16.1,30.35,WNW,293,5.1,5.5,58,0.00,,,0.00,WUHU216HW,2013-03-14 03:44:00,
2013-03-13 23:49:00,29.1,16.1,30.36,WNW,293,2.4,5.1,58,0.00,,,0.00,WUHU216HW,2013-03-14 03:49:00,
2013-03-13 23:54:00,29.1,16.1,30.35,NW,315,4.0,5.1,58,0.00,,,0.00,WUHU216HW,2013-03-14 03:54:00,
2013-03-13 23:59:00,29.1,16.1,30.36,WNW,293,4.0,4.0,58,0.00,,,0.00,WUHU216HW,2013-03-14 03:59:00,